Location: Lachepaillet
(43.4918°N, 1.4874°W)
Time: 03:01:21
(UTC+00:00)

Cosmos 1503 Rocket - Pass Details

Date: 15 May 2026
Orbit: 749 x 785 km, 74.0° (Epoch: 8 June)

Event Time Altitude Azimuth Distance (km) Brightness Sun altitude
Rises 21:44:02 0° 341° (NNW) 3,221 8.6 -19.9°
Reaches altitude 10° 21:46:25 10° 344° (NNW) 2,288 7.5 -20.1°
Maximum altitude 21:51:36 70° 68° (ENE) 800 4.0 -20.7°
Enters shadow 21:53:04 46° 136° (SE) 1,005 4.1 -20.8°
